Regional Weather Roundup
Issued by NWS

Home | Current Version | Previous Version | Text Only | Print | Product List | Glossary On
Versions: 1 2 3 4 5 6 7 8 9 10 11 12 13 14 15 16 17 18 19 20 21 22 23 24 25 26 27 28 29 30 31 32 33 34 35 36 37 38 39 40 41 42 43 44 45 46 47 48 49 50
000
ASUS45 KBOU 021807
RWRCO

WEATHER ROUNDUP FOR COLORADO
NATIONAL WEATHER SERVICE DENVER/BOULDER CO
1100 AM MST MON MAR 02 2015

NOTE: "FAIR" INDICATES FEW OR NO CLOUDS BELOW 12000 FEET WITH NO
SIGNIFICANT WEATHER AND/OR OBSTRUCTIONS TO VISIBILITY.

COZ001>005-013-030-031-021900-
...NORTHWEST COLORADO...

CITY           SKY/WX    TMP DP  RH WIND       PRES   REMARKS
CRAIG          LGT RAIN  36  33  89 E9        29.80F
HAYDEN         CLOUDY    34  28  80 SE5       29.80F WCI  30
MEEKER         LGT RAIN  43  37  79 SW12      29.78F
MOUNT WERNER   NOT AVBL
STEAMBOAT SPGS CLOUDY    32  29  88 CALM      29.81F
WALDEN         CLOUDY    37  28  70 S16G24    29.81F
$$

COZ006>008-011-021900-
...WEST CENTRAL VALLEYS...

CITY           SKY/WX    TMP DP  RH WIND       PRES   REMARKS
GRAND JUNCTION PTSUNNY   45  40  82 SE6       29.76F
MONTROSE       PTSUNNY   46  31  55 E8        29.82F
EAGLE          CLOUDY    36  34  93 CALM      29.86F
RIFLE          LGT RAIN  36  33  89 E6        29.81F
DELTA          CLOUDY    51  42  70 E8        29.81F
NUCLA          CLOUDY    50  32  50 S18G26    29.85F
$$

COZ017>023-064>068-021900-
...SOUTHWEST COLORADO...

CITY           SKY/WX    TMP DP  RH WIND       PRES   REMARKS
DURANGO        CLOUDY    40  33  76 E6        29.96F
CORTEZ         MOSUNNY   49  32  52 S22       29.87F
PAGOSA SPRINGS CLOUDY    40  31  70 NE5       30.01F
TELLURIDE      PTSUNNY   39  25  56 S18G35    29.92S
WOLF CREEK PAS CLOUDY    21  21 100 SW22G29   30.07F WCI   5
$$

COZ009-010-012-014-032>034-037-058>063-021900-
...CENTRAL COLORADO...

CITY           SKY/WX    TMP DP  RH WIND       PRES   REMARKS
ASPEN          CLOUDY    44  28  53 S13       29.83F
BUENA VISTA    PTSUNNY   34  26  71 W3        29.92F
COPPER MTN     LGT SNOW  32  23  69 S22       29.94F WCI  19
BERTHOUD PASS  LGT SNOW  25  19  80 SW25      29.94F VSB 1   WCI   9
COTTONWOOD PAS CLOUDY    34  32  93 CALM      29.94F
GUNNISON       CLOUDY    27  21  80 SE3       29.95F
KREMMLING      CLOUDY    36  28  75 CALM      29.85F
LEADVILLE      MIX PCPN  31  25  78 S15G23    29.90F WCI  20
SALIDA         PTSUNNY   46  29  52 S13G23    29.98F
SUNLIGHT       LGT SNOW  30  30 100 S3          N/A
WILKERSON PASS SUNNY     32  23  69 S9G24     29.97S HAZE    WCI  24
$$

COZ069>075-021900-
...SAN LUIS VALLEY/SANGRE DE CRISTO MOUNTAINS...

CITY           SKY/WX    TMP DP  RH WIND       PRES   REMARKS
ALAMOSA        PTSUNNY   42  26  53 S20       29.98F
LA VETA PASS   CLOUDY    34  27  75 S16G37    30.03F WCI  23
SAGUACHE       MOSUNNY   39  30  70 SE13G18   29.98F
$$

COZ035-036-038>040-021900-
...NORTHERN COLORADO FRONT RANGE...

CITY           SKY/WX    TMP DP  RH WIND       PRES   REMARKS
DENVER INTL AP MOSUNNY   25  19  78 CALM      29.87F HAZE
DMNS CITY PARK   N/A     33  18  54 N7        29.86F WCI  27
AURORA         MOSUNNY   28  18  66 NE3       29.86F
FRONT RANGE AP NOT AVBL
ERIE MUNI ARPT PTSUNNY   26  20  80 CALM      29.89F HAZE
BOULDER MUN AP SUNNY     30  21  69 E3        29.87F HAZE
CENTENNIAL     MOSUNNY   28  17  63 N5        29.84F FOG     WCI  23
BROOMFIELD     MOSUNNY   25  19  80 CALM      29.87F HAZE
FORT COLLINS   SUNNY     30  21  69 N5        29.90F WCI  25
LONGMONT       SUNNY     38  21  48 SW3       29.91F
$$

COZ041-046-047-076>085-087-088-021900-
...PIKES PEAK/PALMER DIVIDE AND SOUTHERN FOOTHILLS...

CITY           SKY/WX    TMP DP  RH WIND       PRES   REMARKS
COLO. SPRINGS  CLOUDY    23  21  92 E3        29.93F FOG
A. F. ACADEMY  MOSUNNY   26  19  74 S5        29.89F WCI  20
ELLICOTT       NOT AVBL
FALCON         FOG       29  25  86 SW8       29.91F VSB<1/4 WCI  21
FORT CARSON    NOT AVBL
LIMON          MIX PCPN  24  22  91 S23       29.93F VSB 1   WCI   9
MONUMENT HILL  SUNNY     36  25  64 S18       29.84F
TRINIDAD       MOSUNNY   31  29  92 NE3       29.94F
$$

COZ042>045-048>051-090-091-021900-
...NORTHEAST COLORADO...

CITY           SKY/WX    TMP DP  RH WIND       PRES   REMARKS
GREELEY ARPT   SUNNY     32  18  55 S6        29.89F WCI  26
AKRON          MOSUNNY   32  23  69 S23G30    29.92F WCI  19
BURLINGTON     CLOUDY    27  22  81 S24G31    30.02F WCI  12
WRAY           CLOUDY    30  24  77 SE20G26   30.04F WCI  18
STERLING       CLOUDY    36  23  60 S16G24    29.94F
HOLYOKE        NOT AVBL
FORT MORGAN    SUNNY     37  22  54 S16       29.91F
$$

COZ086-089-092>099-021900-
...SOUTHEAST COLORADO...

CITY           SKY/WX    TMP DP  RH WIND       PRES   REMARKS
PUEBLO         CLOUDY    27  23  85 S3        29.98F FOG
LA JUNTA       CLOUDY    34  26  72 SE3       29.99F
LAMAR          PTSUNNY   33  26  75 S16       30.03F WCI  23
SPRINGFIELD      N/A     31  27  85 S29G36    30.01F WCI  16
$$



USA.gov is the U.S. government's official web portal to all federal, state and local government web resources and services.